STARLINK-1782

decayed
NORAD ID: 47548 Int'l Des: 2021-009 Owner: SPXS Country: US Constellation: starlink
LEOCIRCULAR
Gruppe

Über STARLINK-1782

Beschreibung wird geladen...

Höhenverlauf

Altitude vs Time

uPlot chart will show altitude changes over time

Zweizeiliger Elementsatz

1 47548U 21009A 25036.16541748 .10001168 12236-4 86910-3 0 9994
2 47548 53.0394 319.7485 0005578 205.2496 300.7018 16.38496757222139
Epoch: 5. Feb. 2025 • Age: 5104 hours

Aktueller Status

Position data unavailable
Startdatum 4. Feb. 2021
Alter 4.5 years
Verglühungsdatum 5. Feb. 2025
Typ internet

Technische Details

Klassifizierung Payload
Masse 260.00 kg
Trockenmasse 248.00 kg
Gesamtmasse 260.00 kg
Länge 0.20 m
Durchmesser 2.80 m
Spannweite 9.00 m
Form Box + pan
Hersteller SPXS
Bus-Typ Starlink
Phasenstatus Unknown Transfer Status
Besitzer/Staat SPXS/US

Große Konstellationen

Loading constellations...